User: anonymous   Login
Location: *
(46.4000°N, 12.6667°E)
Time: 13:17:17
(UTC+00:00)
Language:

H-2A R/B - Orbit

View from above orbital plane
View from above orbital plane
View from above satellite
View from above satellite

Ground track
Ground track

The orbit data is extracted from the following two-line orbital elements,

1 27601U 02056E   20188.75242056  .00000044  00000-0  30685-4 0  9993
2 27601  98.2244 223.5317 0071326 219.3909 256.6212 14.31957121917456
Epoch (UTC): 06 July 2020 18:03:29
Eccentricity: 0.0071326
inclination: 98.2244°
perigee height: 734 km
apogee height: 836 km
right ascension of ascending node: 223.5317°
argument of perigee: 219.3909°
revolutions per day: 14.31957121
mean anomaly at epoch: 256.6212°
orbit number at epoch: 91745

The dashed part of the orbit path shows where the satellite is in the earth's shadow,  

DLR